Regional Weather Roundup
Issued by NWS

Home | Current Version | Previous Version | Graphics & Text | Print | Product List | Glossary Off
Versions: 1 2 3 4 5 6 7 8 9 10 11 12 13 14 15 16 17 18 19 20 21 22 23 24 25 26 27 28 29 30 31 32 33 34 35 36 37 38 39 40 41 42 43 44 45 46 47 48 49 50

347
ASUS43 KTOP 311408
RWRKS

WEATHER ROUNDUP FOR KANSAS
NATIONAL WEATHER SERVICE GOODLAND KS
900 AM CDT WED AUG 31 2016

NOTE:  "FAIR" INDICATES FEW OR NO CLOUDS BELOW 12,000 FEET WITH NO
SIGNIFICANT WEATHER AND/OR OBSTRUCTIONS TO VISIBILITY.

KSZ001>006-013>018-027>032-041>047-311500-
NORTHWEST KANSAS

CITY           SKY/WX    TMP DP  RH WIND       PRES   REMARKS
GOODLAND       FOG       64  63  96 S6        30.23R VSB 1/2
HAYS           CLOUDY    68  61  77 NE3       30.19R
HILL CITY      FOG       66  66 100 NW3       30.21R VSB 1/4
RUSSELL        CLOUDY    70  69  97 E5        30.17R
$$

KSZ061>065-074>080-084>089-311500-
SOUTHWEST KANSAS

CITY           SKY/WX    TMP DP  RH WIND       PRES   REMARKS
DODGE CITY     CLOUDY    68  67  96 NE5       30.19S FOG
ELKHART          N/A     65  61  87 NE2         N/A
GARDEN CITY    FOG       66  65  96 CALM      30.20S VSB<1/4
GREAT BEND     CLOUDY    70  63  78 N10       30.17R
LIBERAL        CLOUDY    68  63  83 NE3       30.22S
PRATT          CLOUDY    67  66  95 N5        30.17R
$$

KSZ066>073-081>083-090>101-311500-
SOUTHEAST KANSAS

CITY           SKY/WX    TMP DP  RH WIND       PRES   REMARKS
CHANUTE        CLOUDY    73  71  93 CALM      30.11R
COFFEYVILLE    CLOUDY    75  70  84 E8        30.09
HUTCHINSON     CLOUDY    72  70  93 CALM      30.15R
MEDICINE LODGE   N/A     71  68  90 N8        30.14R
NEWTON         RAIN      69  68  96 MISG      30.15S FOG
PARSONS        SUNNY     75  69  81 VRB3      30.10S
WICHITA INTL   CLOUDY    73  68  84 N6        30.13R
WICHITA JABRA  CLOUDY    70  69  97 N7        30.13R
WICHITA MCCONL CLOUDY    71  67  87 N7        30.13R
WINFIELD       CLOUDY    73  71  93 CALM      30.12R
$$

KSZ007>012-019>026-033>040-048>060-102>105-311500-
NORTHEAST KANSAS

CITY           SKY/WX    TMP DP  RH WIND       PRES   REMARKS
CONCORDIA      CLOUDY    70  68  93 E5        30.17R
EMPORIA        PTSUNNY   71  69  93 NE6       30.14R
LAWRENCE       CLOUDY    72  71  97 NE8       30.13R
MANHATTAN      LGT RAIN  73  71  93 NE3       30.14S
MARYSVILLE     LGT RAIN  70  70 100 NE6       30.16S
OLATHE IND     CLOUDY    70  69  97 N7        30.14R
OLATHE EXE     CLOUDY    71  69  93 NE9       30.13R
SALINA         HVY RAIN  72  70  93 NE12      30.14S FOG
TOPEKA BILLARD CLOUDY    72  70  93 N3        30.13R
TOPEKA FORBES  CLOUDY    74  70  87 NE5       30.13R
$$




USA.gov is the U.S. government's official web portal to all federal, state and local government web resources and services.